Time,TemperatureF,DewpointF,PressureIn,WindDirection,WindDirectionDegrees,WindSpeedMPH,WindSpeedGustMPH,Humidity,HourlyPrecipIn,Conditions,Clouds,dailyrainin,SoftwareType,DateUTC
2013-03-03 00:14:00,36.6,15.0,30.08,West,266,2.0,7.0,42,0.00,,,0.00,weatherlink.com 1.10,2013-03-03 07:14:00,
2013-03-03 00:29:00,35.7,15.0,30.07,NE,44,0.0,2.0,43,0.00,,,0.00,weatherlink.com 1.10,2013-03-03 07:29:00,
2013-03-03 00:44:00,32.4,16.0,30.05,WSW,239,0.0,5.0,50,0.00,,,0.00,weatherlink.com 1.10,2013-03-03 07:44:00,
2013-03-03 00:59:00,30.0,15.0,30.04,NW,323,0.0,3.0,53,0.00,,,0.00,weatherlink.com 1.10,2013-03-03 07:59:00,
2013-03-03 01:14:00,30.5,16.0,30.02,South,177,0.0,7.0,54,0.00,,,0.00,weatherlink.com 1.10,2013-03-03 08:14:00,
2013-03-03 01:29:00,29.2,16.0,30.02,West,270,0.0,6.0,57,0.00,,,0.00,weatherlink.com 1.10,2013-03-03 08:29:00,
2013-03-03 01:44:00,31.1,14.0,30.01,ESE,121,0.0,4.0,50,0.00,,,0.00,weatherlink.com 1.10,2013-03-03 08:44:00,
2013-03-03 01:59:00,31.4,14.0,29.99,East,101,1.0,5.0,49,0.00,,,0.00,weatherlink.com 1.10,2013-03-03 08:59:00,
2013-03-03 02:14:00,34.5,14.0,29.98,SE,125,11.0,11.0,44,0.00,,,0.00,weatherlink.com 1.10,2013-03-03 09:14:00,
2013-03-03 02:29:00,36.3,15.0,29.95,SE,142,2.0,6.0,41,0.00,,,0.00,weatherlink.com 1.10,2013-03-03 09:29:00,
2013-03-03 02:44:00,36.2,14.0,29.94,North,5,3.0,14.0,41,0.00,,,0.00,weatherlink.com 1.10,2013-03-03 09:44:00,
2013-03-03 02:59:00,35.3,14.0,29.94,ESE,108,1.0,3.0,42,0.00,,,0.00,weatherlink.com 1.10,2013-03-03 09:59:00,
2013-03-03 03:14:00,36.2,15.0,29.90,West,278,0.0,8.0,42,0.00,,,0.00,weatherlink.com 1.10,2013-03-03 10:14:00,
2013-03-03 03:29:00,36.0,15.0,29.91,NW,308,1.0,8.0,42,0.00,,,0.00,weatherlink.com 1.10,2013-03-03 10:29:00,
2013-03-03 03:45:00,35.7,15.0,29.91,SSW,201,11.0,17.0,43,0.00,,,0.00,weatherlink.com 1.10,2013-03-03 10:45:00,
2013-03-03 04:00:00,37.5,15.0,29.90,SE,130,4.0,10.0,40,0.00,,,0.00,weatherlink.com 1.10,2013-03-03 11:00:00,
2013-03-03 04:15:00,37.9,15.0,29.89,ENE,70,1.0,11.0,40,0.00,,,0.00,weatherlink.com 1.10,2013-03-03 11:15:00,
2013-03-03 04:30:00,38.3,16.0,29.88,NNW,335,6.0,22.0,40,0.00,,,0.00,weatherlink.com 1.10,2013-03-03 11:30:00,
2013-03-03 04:45:00,38.0,16.0,29.87,NW,307,6.0,14.0,40,0.00,,,0.00,weatherlink.com 1.10,2013-03-03 11:45:00,
2013-03-03 05:00:00,37.5,16.0,29.86,ENE,78,7.0,14.0,41,0.00,,,0.00,weatherlink.com 1.10,2013-03-03 12:00:00,
2013-03-03 05:15:00,37.3,15.0,29.85,SSE,153,1.0,18.0,41,0.00,,,0.00,weatherlink.com 1.10,2013-03-03 12:15:00,
2013-03-03 05:30:00,37.3,16.0,29.84,East,95,3.0,15.0,42,0.00,,,0.00,weatherlink.com 1.10,2013-03-03 12:30:00,
2013-03-03 05:45:00,37.7,16.0,29.84,WNW,297,5.0,22.0,41,0.00,,,0.00,weatherlink.com 1.10,2013-03-03 12:45:00,
2013-03-03 06:00:00,37.7,15.0,29.82,WSW,237,12.0,26.0,40,0.00,,,0.00,weatherlink.com 1.10,2013-03-03 13:00:00,
2013-03-03 06:15:00,37.8,15.0,29.83,NW,308,6.0,19.0,40,0.00,,,0.00,weatherlink.com 1.10,2013-03-03 13:15:00,
2013-03-03 06:30:00,37.7,15.0,29.83,NW,316,4.0,15.0,40,0.00,,,0.00,weatherlink.com 1.10,2013-03-03 13:30:00,
2013-03-03 06:45:00,37.7,15.0,29.82,NW,306,1.0,19.0,40,0.00,,,0.00,weatherlink.com 1.10,2013-03-03 13:45:00,
2013-03-03 07:00:00,37.7,16.0,29.82,NNW,344,6.0,16.0,41,0.00,,,0.00,weatherlink.com 1.10,2013-03-03 14:00:00,
2013-03-03 07:15:00,38.5,16.0,29.82,WNW,297,7.0,27.0,40,0.00,,,0.00,weatherlink.com 1.10,2013-03-03 14:15:00,
2013-03-03 07:30:00,38.5,16.0,29.81,WSW,243,6.0,20.0,40,0.00,,,0.00,weatherlink.com 1.10,2013-03-03 14:30:00,
2013-03-03 07:45:00,38.5,16.0,29.80,SSW,212,7.0,24.0,40,0.00,,,0.00,weatherlink.com 1.10,2013-03-03 14:45:00,
2013-03-03 08:00:00,38.6,16.0,29.80,NE,54,3.0,17.0,40,0.00,,,0.00,weatherlink.com 1.10,2013-03-03 15:00:00,
2013-03-03 08:15:00,38.9,16.0,29.82,WSW,255,4.0,21.0,40,0.00,,,0.00,weatherlink.com 1.10,2013-03-03 15:15:00,
2013-03-03 08:30:00,38.7,17.0,29.82,North,360,2.0,7.0,41,0.00,,,0.00,weatherlink.com 1.10,2013-03-03 15:30:00,
2013-03-03 08:45:00,39.1,17.0,29.81,NW,321,13.0,18.0,40,0.00,,,0.00,weatherlink.com 1.10,2013-03-03 15:45:00,
2013-03-03 09:00:00,39.0,17.0,29.81,SSW,205,10.0,12.0,41,0.00,,,0.00,weatherlink.com 1.10,2013-03-03 16:00:00,
2013-03-03 09:15:00,39.6,18.0,29.80,South,190,4.0,16.0,41,0.00,,,0.00,weatherlink.com 1.10,2013-03-03 16:15:00,
2013-03-03 09:30:00,40.0,17.0,29.80,SE,136,4.0,13.0,40,0.00,,,0.00,weatherlink.com 1.10,2013-03-03 16:30:00,
2013-03-03 09:45:00,40.7,18.0,29.79,ESE,123,2.0,29.0,40,0.00,,,0.00,weatherlink.com 1.10,2013-03-03 16:45:00,
2013-03-03 10:00:00,42.4,18.0,29.78,SSW,194,5.0,13.0,37,0.00,,,0.00,weatherlink.com 1.10,2013-03-03 17:00:00,
2013-03-03 10:15:00,42.9,17.0,29.77,South,177,11.0,27.0,35,0.00,,,0.00,weatherlink.com 1.10,2013-03-03 17:15:00,
2013-03-03 10:30:00,42.6,17.0,29.76,NNW,333,11.0,20.0,35,0.00,,,0.00,weatherlink.com 1.10,2013-03-03 17:30:00,
2013-03-03 10:45:00,42.1,17.0,29.76,SW,214,13.0,26.0,36,0.00,,,0.00,weatherlink.com 1.10,2013-03-03 17:45:00,
2013-03-03 11:00:00,41.9,18.0,29.74,WSW,253,10.0,19.0,38,0.00,,,0.00,weatherlink.com 1.10,2013-03-03 18:00:00,
2013-03-03 11:15:00,42.4,18.0,29.71,WNW,298,7.0,25.0,37,0.00,,,0.00,weatherlink.com 1.10,2013-03-03 18:15:00,
2013-03-03 11:30:00,42.4,18.0,29.70,WSW,249,6.0,22.0,37,0.00,,,0.00,weatherlink.com 1.10,2013-03-03 18:30:00,
2013-03-03 11:45:00,42.7,17.0,29.70,WNW,300,9.0,38.0,36,0.00,,,0.00,weatherlink.com 1.10,2013-03-03 18:45:00,
2013-03-03 12:00:00,43.5,16.0,29.67,WNW,285,13.0,41.0,33,0.00,,,0.00,weatherlink.com 1.10,2013-03-03 19:00:00,
2013-03-03 12:16:00,42.8,17.0,29.67,West,269,11.0,34.0,36,0.00,,,0.00,weatherlink.com 1.10,2013-03-03 19:16:00,
2013-03-03 12:31:00,42.6,17.0,29.66,WNW,285,20.0,37.0,36,0.00,,,0.00,weatherlink.com 1.10,2013-03-03 19:31:00,
2013-03-03 12:46:00,43.5,18.0,29.65,WSW,250,16.0,35.0,36,0.00,,,0.00,weatherlink.com 1.10,2013-03-03 19:46:00,
2013-03-03 13:01:00,42.8,18.0,29.65,WNW,291,14.0,35.0,37,0.00,,,0.00,weatherlink.com 1.10,2013-03-03 20:01:00,
2013-03-03 13:16:00,42.6,18.0,29.63,West,266,15.0,35.0,37,0.00,,,0.00,weatherlink.com 1.10,2013-03-03 20:16:00,
2013-03-03 13:31:00,43.7,19.0,29.61,WNW,302,18.0,31.0,37,0.00,,,0.00,weatherlink.com 1.10,2013-03-03 20:31:00,
2013-03-03 13:46:00,43.7,18.0,29.59,West,259,31.0,35.0,36,0.00,,,0.00,weatherlink.com 1.10,2013-03-03 20:46:00,
2013-03-03 14:01:00,43.9,19.0,29.61,WNW,285,16.0,31.0,37,0.00,,,0.00,weatherlink.com 1.10,2013-03-03 21:01:00,
2013-03-03 14:16:00,43.9,19.0,29.62,West,260,11.0,35.0,37,0.00,,,0.00,weatherlink.com 1.10,2013-03-03 21:16:00,
2013-03-03 14:31:00,43.9,18.0,29.62,NNW,328,8.0,33.0,36,0.00,,,0.00,weatherlink.com 1.10,2013-03-03 21:31:00,
2013-03-03 14:46:00,43.2,18.0,29.62,WNW,300,23.0,29.0,37,0.00,,,0.00,weatherlink.com 1.10,2013-03-03 21:46:00,
2013-03-03 15:01:00,42.6,19.0,29.63,WNW,288,20.0,31.0,39,0.00,,,0.00,weatherlink.com 1.10,2013-03-03 22:01:00,
2013-03-03 15:16:00,41.6,19.0,29.63,West,272,14.0,32.0,41,0.00,,,0.00,weatherlink.com 1.10,2013-03-03 22:16:00,
2013-03-03 15:31:00,41.6,20.0,29.64,West,274,11.0,38.0,42,0.00,,,0.00,weatherlink.com 1.10,2013-03-03 22:31:00,
2013-03-03 15:46:00,40.5,20.0,29.64,West,271,19.0,29.0,44,0.00,,,0.00,weatherlink.com 1.10,2013-03-03 22:46:00,
2013-03-03 16:01:00,39.7,20.0,29.65,WSW,243,14.0,33.0,46,0.00,,,0.00,weatherlink.com 1.10,2013-03-03 23:01:00,
2013-03-03 16:16:00,39.8,20.0,29.64,NW,315,15.0,30.0,45,0.00,,,0.00,weatherlink.com 1.10,2013-03-03 23:16:00,
2013-03-03 16:31:00,39.6,20.0,29.64,North,11,6.0,26.0,46,0.00,,,0.00,weatherlink.com 1.10,2013-03-03 23:31:00,
2013-03-03 16:46:00,39.0,21.0,29.64,WSW,243,15.0,31.0,48,0.00,,,0.00,weatherlink.com 1.10,2013-03-03 23:46:00,
2013-03-03 17:01:00,38.3,21.0,29.64,WNW,285,6.0,32.0,51,0.00,,,0.00,weatherlink.com 1.10,2013-03-04 00:01:00,
2013-03-03 17:16:00,37.9,22.0,29.64,WNW,293,20.0,28.0,52,0.00,,,0.00,weatherlink.com 1.10,2013-03-04 00:16:00,
2013-03-03 17:31:00,37.7,21.0,29.66,WSW,248,10.0,25.0,52,0.00,,,0.00,weatherlink.com 1.10,2013-03-04 00:31:00,
2013-03-03 17:46:00,37.1,22.0,29.68,West,263,7.0,26.0,55,0.00,,,0.00,weatherlink.com 1.10,2013-03-04 00:46:00,
2013-03-03 18:01:00,36.5,23.0,29.69,SW,232,18.0,22.0,58,0.00,,,0.00,weatherlink.com 1.10,2013-03-04 01:01:00,
2013-03-03 18:16:00,35.7,24.0,29.70,West,264,5.0,19.0,63,0.00,,,0.00,weatherlink.com 1.10,2013-03-04 01:16:00,
2013-03-03 18:31:00,34.8,25.0,29.70,NW,304,4.0,18.0,68,0.00,,,0.00,weatherlink.com 1.10,2013-03-04 01:31:00,
2013-03-03 18:46:00,34.5,25.0,29.71,NW,323,7.0,18.0,69,0.00,,,0.00,weatherlink.com 1.10,2013-03-04 01:46:00,
2013-03-03 19:01:00,34.5,25.0,29.70,WNW,283,6.0,16.0,69,0.00,,,0.00,weatherlink.com 1.10,2013-03-04 02:01:00,
2013-03-03 19:16:00,34.5,25.0,29.70,West,270,3.0,15.0,68,0.00,,,0.00,weatherlink.com 1.10,2013-03-04 02:16:00,
2013-03-03 19:31:00,34.4,25.0,29.69,West,262,4.0,15.0,69,0.00,,,0.00,weatherlink.com 1.10,2013-03-04 02:31:00,
2013-03-03 19:46:00,33.9,25.0,29.69,West,281,10.0,13.0,71,0.00,,,0.00,weatherlink.com 1.10,2013-03-04 02:46:00,
2013-03-03 20:01:00,34.6,24.0,29.69,West,264,9.0,18.0,66,0.00,,,0.00,weatherlink.com 1.10,2013-03-04 03:01:00,
2013-03-03 20:16:00,34.8,24.0,29.68,West,269,14.0,20.0,64,0.00,,,0.00,weatherlink.com 1.10,2013-03-04 03:16:00,
2013-03-03 20:31:00,34.9,24.0,29.68,WSW,248,6.0,18.0,64,0.00,,,0.00,weatherlink.com 1.10,2013-03-04 03:31:00,
2013-03-03 20:46:00,34.8,23.0,29.68,WSW,248,10.0,15.0,63,0.00,,,0.00,weatherlink.com 1.10,2013-03-04 03:46:00,
2013-03-03 21:01:00,34.5,24.0,29.68,West,265,4.0,12.0,65,0.00,,,0.00,weatherlink.com 1.10,2013-03-04 04:01:00,
2013-03-03 21:16:00,34.3,25.0,29.69,WNW,298,5.0,16.0,68,0.00,,,0.00,weatherlink.com 1.10,2013-03-04 04:16:00,
2013-03-03 21:31:00,33.9,25.0,29.69,WSW,257,7.0,11.0,70,0.00,,,0.00,weatherlink.com 1.10,2013-03-04 04:31:00,
2013-03-03 21:46:00,34.0,24.0,29.68,West,281,2.0,13.0,67,0.00,,,0.00,weatherlink.com 1.10,2013-03-04 04:46:00,
2013-03-03 22:01:00,34.7,23.0,29.68,West,269,6.0,15.0,63,0.00,,,0.00,weatherlink.com 1.10,2013-03-04 05:01:00,
2013-03-03 22:16:00,34.5,23.0,29.67,West,262,2.0,18.0,64,0.00,,,0.00,weatherlink.com 1.10,2013-03-04 05:16:00,
2013-03-03 22:32:00,34.2,23.0,29.66,WNW,287,8.0,13.0,64,0.00,,,0.00,weatherlink.com 1.10,2013-03-04 05:32:00,
2013-03-03 22:46:00,34.5,23.0,29.66,West,278,3.0,15.0,64,0.00,,,0.00,weatherlink.com 1.10,2013-03-04 05:46:00,
2013-03-03 23:01:00,33.2,25.0,29.66,WNW,284,3.0,12.0,72,0.00,,,0.00,weatherlink.com 1.10,2013-03-04 06:01:00,
2013-03-03 23:16:00,32.7,25.0,29.65,WSW,243,12.0,16.0,72,0.00,,,0.00,weatherlink.com 1.10,2013-03-04 06:16:00,
2013-03-03 23:31:00,33.4,24.0,29.65,NW,317,2.0,18.0,68,0.00,,,0.00,weatherlink.com 1.10,2013-03-04 06:31:00,
2013-03-03 23:47:00,33.5,24.0,29.65,SW,221,3.0,20.0,68,0.00,,,0.00,weatherlink.com 1.10,2013-03-04 06:47:00,